Time,TemperatureF,DewpointF,PressureIn,WindDirection,WindDirectionDegrees,WindSpeedMPH,WindSpeedGustMPH,Humidity,HourlyPrecipIn,Conditions,Clouds,dailyrainin,SoftwareType,DateUTC
2013-03-24 00:00:00,39.0,25.5,29.99,SE,124,0.0,0.0,58,0.00,,,0.00,VWS V14.01,2013-03-24 04:00:00,
2013-03-24 00:05:00,39.1,25.6,30.00,North,350,0.0,0.0,58,0.00,,,0.00,VWS V14.01,2013-03-24 04:05:00,
2013-03-24 00:10:00,39.0,25.1,30.00,North,350,0.0,0.0,57,0.00,,,0.00,VWS V14.01,2013-03-24 04:10:00,
2013-03-24 00:15:00,39.0,25.1,30.00,North,355,0.0,0.0,57,0.00,,,0.00,VWS V14.01,2013-03-24 04:15:00,
2013-03-24 00:20:00,38.9,25.0,30.00,North,355,0.0,0.0,57,0.00,,,0.00,VWS V14.01,2013-03-24 04:20:00,
2013-03-24 00:25:00,38.8,25.3,29.99,North,355,0.0,0.0,58,0.00,,,0.00,VWS V14.01,2013-03-24 04:25:00,
2013-03-24 00:30:00,38.6,25.1,30.00,North,355,0.0,0.0,58,0.00,,,0.00,VWS V14.01,2013-03-24 04:30:00,
2013-03-24 00:35:00,38.4,25.3,30.00,North,355,0.0,0.0,59,0.00,,,0.00,VWS V14.01,2013-03-24 04:35:00,
2013-03-24 00:40:00,38.3,25.2,30.00,North,355,0.0,0.0,59,0.00,,,0.00,VWS V14.01,2013-03-24 04:40:00,
2013-03-24 00:45:00,38.1,25.1,30.00,North,355,0.0,0.0,59,0.00,,,0.00,VWS V14.01,2013-03-24 04:45:00,
2013-03-24 00:50:00,37.9,25.3,30.00,North,355,0.0,0.0,60,0.00,,,0.00,VWS V14.01,2013-03-24 04:50:00,
2013-03-24 00:55:00,37.7,25.1,30.00,North,355,0.0,0.0,60,0.00,,,0.00,VWS V14.01,2013-03-24 04:55:00,
2013-03-24 01:00:00,37.5,24.5,29.99,North,355,0.0,0.0,59,0.00,,,0.00,VWS V14.01,2013-03-24 05:00:00,
2013-03-24 01:05:00,37.2,24.6,29.99,North,355,0.0,0.0,60,0.00,,,0.00,VWS V14.01,2013-03-24 05:05:00,
2013-03-24 01:10:00,37.0,24.4,30.00,North,355,0.0,0.0,60,0.00,,,0.00,VWS V14.01,2013-03-24 05:10:00,
2013-03-24 01:15:00,36.7,24.1,30.00,North,355,0.0,0.0,60,0.00,,,0.00,VWS V14.01,2013-03-24 05:15:00,
2013-03-24 01:20:00,36.5,24.3,30.00,North,355,0.0,0.0,61,0.00,,,0.00,VWS V14.01,2013-03-24 05:20:00,
2013-03-24 01:25:00,36.3,24.1,30.00,North,355,0.0,0.0,61,0.00,,,0.00,VWS V14.01,2013-03-24 05:25:00,
2013-03-24 01:30:00,36.1,24.0,30.00,North,355,0.0,0.0,61,0.00,,,0.00,VWS V14.01,2013-03-24 05:30:00,
2013-03-24 01:35:00,35.9,24.2,30.00,North,355,0.0,0.0,62,0.00,,,0.00,VWS V14.01,2013-03-24 05:35:00,
2013-03-24 01:40:00,35.8,24.5,29.99,North,355,0.0,0.0,63,0.00,,,0.00,VWS V14.01,2013-03-24 05:40:00,
2013-03-24 01:45:00,35.6,24.6,29.98,North,355,0.0,0.0,64,0.00,,,0.00,VWS V14.01,2013-03-24 05:45:00,
2013-03-24 01:50:00,35.5,24.5,29.98,North,355,0.0,0.0,64,0.00,,,0.00,VWS V14.01,2013-03-24 05:50:00,
2013-03-24 01:55:00,35.3,24.7,29.99,North,355,0.0,0.0,65,0.00,,,0.00,VWS V14.01,2013-03-24 05:55:00,
2013-03-24 02:00:00,35.1,24.2,29.99,North,355,0.0,0.0,64,0.00,,,0.00,VWS V14.01,2013-03-24 06:00:00,
2013-03-24 02:05:00,34.9,24.3,30.00,North,355,0.0,0.0,65,0.00,,,0.00,VWS V14.01,2013-03-24 06:05:00,
2013-03-24 02:10:00,34.7,24.1,30.00,North,355,0.0,0.0,65,0.00,,,0.00,VWS V14.01,2013-03-24 06:10:00,
2013-03-24 02:15:00,34.6,23.7,29.99,North,355,0.0,0.0,64,0.00,,,0.00,VWS V14.01,2013-03-24 06:15:00,
2013-03-24 02:20:00,34.5,24.0,29.99,North,355,0.0,0.0,65,0.00,,,0.00,VWS V14.01,2013-03-24 06:20:00,
2013-03-24 02:25:00,34.4,24.2,29.99,North,355,0.0,0.0,66,0.00,,,0.00,VWS V14.01,2013-03-24 06:25:00,
2013-03-24 02:30:00,34.2,24.4,29.99,North,355,0.0,0.0,67,0.00,,,0.00,VWS V14.01,2013-03-24 06:30:00,
2013-03-24 02:35:00,34.1,24.0,29.99,North,355,0.0,0.0,66,0.00,,,0.00,VWS V14.01,2013-03-24 06:35:00,
2013-03-24 02:40:00,33.8,24.4,29.99,North,355,0.0,0.0,68,0.00,,,0.00,VWS V14.01,2013-03-24 06:40:00,
2013-03-24 02:45:00,33.7,24.3,29.98,North,355,0.0,0.0,68,0.00,,,0.00,VWS V14.01,2013-03-24 06:45:00,
2013-03-24 02:50:00,33.5,24.1,29.98,North,355,0.0,0.0,68,0.00,,,0.00,VWS V14.01,2013-03-24 06:50:00,
2013-03-24 02:55:00,33.3,24.2,29.98,North,355,0.0,0.0,69,0.00,,,0.00,VWS V14.01,2013-03-24 06:55:00,
2013-03-24 03:01:00,33.2,24.1,29.98,North,355,0.0,0.0,69,0.00,,,0.00,VWS V14.01,2013-03-24 07:01:00,
2013-03-24 03:06:00,33.0,24.0,29.98,North,355,0.0,0.0,69,0.00,,,0.00,VWS V14.01,2013-03-24 07:06:00,
2013-03-24 03:11:00,33.0,24.0,29.98,North,355,0.0,0.0,69,0.00,,,0.00,VWS V14.01,2013-03-24 07:11:00,
2013-03-24 03:16:00,32.9,24.2,29.98,North,355,0.0,0.0,70,0.00,,,0.00,VWS V14.01,2013-03-24 07:16:00,
2013-03-24 03:21:00,32.8,24.5,29.98,North,355,0.0,0.0,71,0.00,,,0.00,VWS V14.01,2013-03-24 07:21:00,
2013-03-24 03:26:00,32.6,23.9,29.97,North,355,0.0,0.0,70,0.00,,,0.00,VWS V14.01,2013-03-24 07:26:00,
2013-03-24 03:31:00,32.5,24.2,29.97,North,355,0.0,0.0,71,0.00,,,0.00,VWS V14.01,2013-03-24 07:31:00,
2013-03-24 03:36:00,32.4,24.4,29.97,North,355,0.0,0.0,72,0.00,,,0.00,VWS V14.01,2013-03-24 07:36:00,
2013-03-24 03:41:00,32.2,24.2,29.97,North,355,0.0,0.0,72,0.00,,,0.00,VWS V14.01,2013-03-24 07:41:00,
2013-03-24 03:46:00,32.1,24.1,29.98,North,355,0.0,0.0,72,0.00,,,0.00,VWS V14.01,2013-03-24 07:46:00,
2013-03-24 03:51:00,32.1,24.1,29.99,North,355,0.0,0.0,72,0.00,,,0.00,VWS V14.01,2013-03-24 07:51:00,
2013-03-24 03:56:00,32.0,24.3,29.99,North,355,0.0,0.0,73,0.00,,,0.00,VWS V14.01,2013-03-24 07:56:00,
2013-03-24 04:01:00,32.0,24.3,29.99,North,355,0.0,0.0,73,0.00,,,0.00,VWS V14.01,2013-03-24 08:01:00,
2013-03-24 04:06:00,32.0,24.0,29.99,North,355,0.0,0.0,72,0.00,,,0.00,VWS V14.01,2013-03-24 08:06:00,
2013-03-24 04:11:00,32.0,24.0,30.00,North,355,0.0,0.0,72,0.00,,,0.00,VWS V14.01,2013-03-24 08:11:00,
2013-03-24 04:16:00,32.1,24.4,30.00,North,355,0.0,0.0,73,0.00,,,0.00,VWS V14.01,2013-03-24 08:16:00,
2013-03-24 04:21:00,32.0,24.3,30.00,North,355,0.0,0.0,73,0.00,,,0.00,VWS V14.01,2013-03-24 08:21:00,
2013-03-24 04:26:00,32.0,24.7,30.00,North,355,0.0,0.0,74,0.00,,,0.00,VWS V14.01,2013-03-24 08:26:00,
2013-03-24 04:31:00,32.0,24.7,30.01,North,355,0.0,0.0,74,0.00,,,0.00,VWS V14.01,2013-03-24 08:31:00,
2013-03-24 04:36:00,31.9,24.2,30.00,North,355,0.0,0.0,73,0.00,,,0.00,VWS V14.01,2013-03-24 08:36:00,
2013-03-24 04:41:00,31.8,23.8,30.01,North,355,0.0,0.0,72,0.00,,,0.00,VWS V14.01,2013-03-24 08:41:00,
2013-03-24 04:46:00,31.7,24.0,30.01,North,355,0.0,0.0,73,0.00,,,0.00,VWS V14.01,2013-03-24 08:46:00,
2013-03-24 04:51:00,31.5,24.2,30.00,North,355,0.0,0.0,74,0.00,,,0.00,VWS V14.01,2013-03-24 08:51:00,
2013-03-24 04:56:00,31.4,24.1,30.00,North,355,0.0,0.0,74,0.00,,,0.00,VWS V14.01,2013-03-24 08:56:00,
2013-03-24 05:01:00,31.4,24.4,30.00,North,355,0.0,0.0,75,0.00,,,0.00,VWS V14.01,2013-03-24 09:01:00,
2013-03-24 05:06:00,31.2,24.2,30.00,North,355,0.0,0.0,75,0.00,,,0.00,VWS V14.01,2013-03-24 09:06:00,
2013-03-24 05:11:00,31.2,24.2,30.00,North,355,0.0,0.0,75,0.00,,,0.00,VWS V14.01,2013-03-24 09:11:00,
2013-03-24 05:16:00,31.1,24.4,30.01,North,355,0.0,0.0,76,0.00,,,0.00,VWS V14.01,2013-03-24 09:16:00,
2013-03-24 05:21:00,31.1,24.8,30.01,North,355,0.0,0.0,77,0.00,,,0.00,VWS V14.01,2013-03-24 09:21:00,
2013-03-24 05:26:00,31.1,24.8,30.00,North,355,0.0,0.0,77,0.00,,,0.00,VWS V14.01,2013-03-24 09:26:00,
2013-03-24 05:31:00,31.1,24.8,30.00,North,355,0.0,0.0,77,0.00,,,0.00,VWS V14.01,2013-03-24 09:31:00,
2013-03-24 05:36:00,31.1,24.8,30.00,North,355,0.0,0.0,77,0.00,,,0.00,VWS V14.01,2013-03-24 09:36:00,
2013-03-24 05:41:00,31.1,24.4,30.00,North,355,0.0,0.0,76,0.00,,,0.00,VWS V14.01,2013-03-24 09:41:00,
2013-03-24 05:46:00,31.1,24.4,30.00,North,355,0.0,0.0,76,0.00,,,0.00,VWS V14.01,2013-03-24 09:46:00,
2013-03-24 05:51:00,31.1,24.4,30.00,North,355,0.0,0.0,76,0.00,,,0.00,VWS V14.01,2013-03-24 09:51:00,
2013-03-24 05:56:00,31.1,24.4,29.99,North,355,0.0,0.0,76,0.00,,,0.00,VWS V14.01,2013-03-24 09:56:00,
2013-03-24 06:00:00,31.1,24.4,29.99,North,355,0.0,0.0,76,0.00,,,0.00,VWS V14.01,2013-03-24 10:00:00,
2013-03-24 06:06:00,31.0,24.0,29.98,North,355,0.0,0.0,75,0.00,,,0.00,VWS V14.01,2013-03-24 10:06:00,
2013-03-24 06:11:00,31.0,24.0,29.98,North,355,0.0,0.0,75,0.00,,,0.00,VWS V14.01,2013-03-24 10:11:00,
2013-03-24 06:16:00,30.9,24.2,29.98,North,355,0.0,0.0,76,0.00,,,0.00,VWS V14.01,2013-03-24 10:16:00,
2013-03-24 06:21:00,30.8,24.5,29.98,North,355,0.0,0.0,77,0.00,,,0.00,VWS V14.01,2013-03-24 10:21:00,
2013-03-24 06:26:00,30.8,24.5,29.98,North,355,0.0,0.0,77,0.00,,,0.00,VWS V14.01,2013-03-24 10:26:00,
2013-03-24 06:31:00,30.7,24.4,29.98,North,355,0.0,0.0,77,0.00,,,0.00,VWS V14.01,2013-03-24 10:31:00,
2013-03-24 06:36:00,30.6,24.3,29.98,North,355,0.0,0.0,77,0.00,,,0.00,VWS V14.01,2013-03-24 10:36:00,
2013-03-24 06:41:00,30.6,24.6,29.98,North,355,0.0,0.0,78,0.00,,,0.00,VWS V14.01,2013-03-24 10:41:00,
2013-03-24 06:46:00,30.6,24.6,29.98,North,355,0.0,0.0,78,0.00,,,0.00,VWS V14.01,2013-03-24 10:46:00,
2013-03-24 06:51:00,30.6,24.6,29.98,North,355,0.0,0.0,78,0.00,,,0.00,VWS V14.01,2013-03-24 10:51:00,
2013-03-24 06:56:00,30.6,24.6,29.98,North,355,0.0,0.0,78,0.00,,,0.00,VWS V14.01,2013-03-24 10:56:00,
2013-03-24 07:01:00,30.6,24.6,29.98,North,355,0.0,0.0,78,0.00,,,0.00,VWS V14.01,2013-03-24 11:01:00,
2013-03-24 07:06:00,30.6,24.6,29.98,North,355,0.0,0.0,78,0.00,,,0.00,VWS V14.01,2013-03-24 11:06:00,
2013-03-24 07:11:00,30.7,25.0,29.98,North,355,0.0,0.0,79,0.00,,,0.00,VWS V14.01,2013-03-24 11:11:00,
2013-03-24 07:16:00,30.7,24.7,29.99,North,355,0.0,0.0,78,0.00,,,0.00,VWS V14.01,2013-03-24 11:16:00,
2013-03-24 07:21:00,30.7,24.7,29.99,North,355,0.0,0.0,78,0.00,,,0.00,VWS V14.01,2013-03-24 11:21:00,
2013-03-24 07:26:00,30.8,24.8,29.99,North,355,0.0,0.0,78,0.00,,,0.00,VWS V14.01,2013-03-24 11:26:00,
2013-03-24 07:31:00,30.9,24.5,29.99,North,355,0.0,0.0,77,0.00,,,0.00,VWS V14.01,2013-03-24 11:31:00,
2013-03-24 07:36:00,31.0,24.6,29.99,North,355,0.0,0.0,77,0.00,,,0.00,VWS V14.01,2013-03-24 11:36:00,
2013-03-24 07:41:00,31.2,24.8,29.99,North,355,0.0,0.0,77,0.00,,,0.00,VWS V14.01,2013-03-24 11:41:00,
2013-03-24 07:46:00,31.5,25.1,29.99,North,355,0.0,0.0,77,0.00,,,0.00,VWS V14.01,2013-03-24 11:46:00,
2013-03-24 07:51:00,31.7,25.3,29.99,North,355,0.0,0.0,77,0.00,,,0.00,VWS V14.01,2013-03-24 11:51:00,
2013-03-24 07:56:00,31.9,25.5,29.99,North,355,0.0,0.0,77,0.00,,,0.00,VWS V14.01,2013-03-24 11:56:00,
2013-03-24 08:01:00,32.0,25.6,29.99,North,355,0.0,0.0,77,0.00,,,0.00,VWS V14.01,2013-03-24 12:01:00,
2013-03-24 08:06:00,32.2,25.8,29.99,North,355,0.0,0.0,77,0.00,,,0.00,VWS V14.01,2013-03-24 12:06:00,
2013-03-24 08:10:00,32.5,25.8,29.98,North,355,0.0,0.0,76,0.00,,,0.00,VWS V14.01,2013-03-24 12:10:00,
2013-03-24 08:15:00,32.7,25.7,29.98,North,355,0.0,0.0,75,0.00,,,0.00,VWS V14.01,2013-03-24 12:15:00,
2013-03-24 08:20:00,32.9,25.9,29.99,North,355,0.0,0.0,75,0.00,,,0.00,VWS V14.01,2013-03-24 12:20:00,
2013-03-24 08:25:00,33.2,25.8,29.99,North,355,0.0,0.0,74,0.00,,,0.00,VWS V14.01,2013-03-24 12:25:00,
2013-03-24 08:30:00,33.4,25.7,30.00,North,355,0.0,0.0,73,0.00,,,0.00,VWS V14.01,2013-03-24 12:30:00,
2013-03-24 08:35:00,33.7,26.0,29.99,North,355,0.0,0.0,73,0.00,,,0.00,VWS V14.01,2013-03-24 12:35:00,
2013-03-24 08:40:00,34.0,25.9,29.99,North,355,0.0,0.0,72,0.00,,,0.00,VWS V14.01,2013-03-24 12:40:00,
2013-03-24 08:45:00,34.2,25.5,29.99,North,355,0.0,0.0,70,0.00,,,0.00,VWS V14.01,2013-03-24 12:45:00,
2013-03-24 08:50:00,34.6,25.5,29.99,North,355,0.0,0.0,69,0.00,,,0.00,VWS V14.01,2013-03-24 12:50:00,
2013-03-24 08:56:00,34.8,25.7,29.98,North,355,0.0,0.0,69,0.00,,,0.00,VWS V14.01,2013-03-24 12:56:00,
2013-03-24 09:01:00,35.2,26.1,29.97,North,355,0.0,0.0,69,0.00,,,0.00,VWS V14.01,2013-03-24 13:01:00,
2013-03-24 09:06:00,35.7,26.2,29.97,North,355,0.0,0.0,68,0.00,,,0.00,VWS V14.01,2013-03-24 13:06:00,
2013-03-24 09:11:00,36.1,26.2,29.97,ESE,115,0.0,0.0,67,0.00,,,0.00,VWS V14.01,2013-03-24 13:11:00,
2013-03-24 09:15:00,36.5,26.2,29.97,ESE,115,0.0,0.0,66,0.00,,,0.00,VWS V14.01,2013-03-24 13:15:00,
2013-03-24 09:20:00,37.0,26.3,29.96,ESE,115,0.0,0.0,65,0.00,,,0.00,VWS V14.01,2013-03-24 13:20:00,
2013-03-24 09:25:00,37.5,26.5,29.95,NNE,30,0.0,2.0,64,0.00,,,0.00,VWS V14.01,2013-03-24 13:25:00,
2013-03-24 09:30:00,37.9,26.5,29.94,NE,36,0.0,1.0,63,0.00,,,0.00,VWS V14.01,2013-03-24 13:30:00,
2013-03-24 09:35:00,38.2,26.3,29.94,NE,49,1.0,6.0,62,0.00,,,0.00,VWS V14.01,2013-03-24 13:35:00,
2013-03-24 09:40:00,38.6,26.3,29.93,North,5,3.0,3.0,61,0.00,,,0.00,VWS V14.01,2013-03-24 13:40:00,
2013-03-24 09:46:00,38.9,27.0,29.93,ENE,57,0.0,3.0,62,0.00,,,0.00,VWS V14.01,2013-03-24 13:46:00,
2013-03-24 09:51:00,39.2,26.9,29.94,ENE,61,5.0,6.0,61,0.00,,,0.00,VWS V14.01,2013-03-24 13:51:00,
2013-03-24 09:56:00,39.4,26.3,29.93,NNW,348,0.0,2.0,59,0.00,,,0.00,VWS V14.01,2013-03-24 13:56:00,
2013-03-24 10:00:00,39.5,26.0,29.93,ENE,76,2.0,5.0,58,0.00,,,0.00,VWS V14.01,2013-03-24 14:00:00,
2013-03-24 10:05:00,39.6,25.2,29.93,East,94,2.0,4.0,56,0.00,,,0.00,VWS V14.01,2013-03-24 14:05:00,
2013-03-24 10:10:00,39.9,25.5,29.94,ESE,112,3.0,7.0,56,0.00,,,0.00,VWS V14.01,2013-03-24 14:10:00,
2013-03-24 10:15:00,40.1,24.8,29.94,NE,46,5.0,5.0,54,0.00,,,0.00,VWS V14.01,2013-03-24 14:15:00,
2013-03-24 10:20:00,40.3,24.5,29.94,NE,55,2.0,4.0,53,0.00,,,0.00,VWS V14.01,2013-03-24 14:20:00,
2013-03-24 10:25:00,40.4,24.6,29.93,ENE,57,0.0,2.0,53,0.00,,,0.00,VWS V14.01,2013-03-24 14:25:00,
2013-03-24 10:30:00,40.5,24.7,29.93,ENE,69,4.0,4.0,53,0.00,,,0.00,VWS V14.01,2013-03-24 14:30:00,
2013-03-24 10:35:00,40.7,25.4,29.93,East,80,1.0,2.0,54,0.00,,,0.00,VWS V14.01,2013-03-24 14:35:00,
2013-03-24 10:40:00,41.0,25.2,29.92,NE,49,2.0,7.0,53,0.00,,,0.00,VWS V14.01,2013-03-24 14:40:00,
2013-03-24 10:45:00,41.1,25.3,29.92,NW,317,0.0,1.0,53,0.00,,,0.00,VWS V14.01,2013-03-24 14:45:00,
2013-03-24 10:50:00,41.2,25.4,29.92,ENE,57,0.0,1.0,53,0.00,,,0.00,VWS V14.01,2013-03-24 14:50:00,
2013-03-24 10:55:00,41.2,24.5,29.92,ENE,62,3.0,3.0,51,0.00,,,0.00,VWS V14.01,2013-03-24 14:55:00,
2013-03-24 11:00:00,41.1,25.3,29.91,SE,136,4.0,5.0,53,0.00,,,0.00,VWS V14.01,2013-03-24 15:00:00,
2013-03-24 11:05:00,41.3,25.0,29.91,ESE,119,0.0,6.0,52,0.00,,,0.00,VWS V14.01,2013-03-24 15:05:00,
2013-03-24 11:10:00,41.3,24.5,29.91,NNE,24,0.0,4.0,51,0.00,,,0.00,VWS V14.01,2013-03-24 15:10:00,
2013-03-24 11:15:00,41.3,24.5,29.90,ENE,57,3.0,4.0,51,0.00,,,0.00,VWS V14.01,2013-03-24 15:15:00,
2013-03-24 11:20:00,41.4,25.1,29.91,ENE,72,0.0,2.0,52,0.00,,,0.00,VWS V14.01,2013-03-24 15:20:00,
2013-03-24 11:25:00,41.5,25.2,29.91,NNE,15,1.0,2.0,52,0.00,,,0.00,VWS V14.01,2013-03-24 15:25:00,
2013-03-24 11:30:00,41.6,25.8,29.91,ENE,63,5.0,6.0,53,0.00,,,0.00,VWS V14.01,2013-03-24 15:30:00,
2013-03-24 11:35:00,41.5,25.7,29.91,ENE,65,1.0,4.0,53,0.00,,,0.00,VWS V14.01,2013-03-24 15:35:00,
2013-03-24 11:40:00,41.4,25.6,29.91,ESE,102,0.0,2.0,53,0.00,,,0.00,VWS V14.01,2013-03-24 15:40:00,
2013-03-24 11:45:00,41.3,25.5,29.91,SE,127,0.0,2.0,53,0.00,,,0.00,VWS V14.01,2013-03-24 15:45:00,
2013-03-24 11:50:00,41.4,25.6,29.91,ENE,67,7.0,7.0,53,0.00,,,0.00,VWS V14.01,2013-03-24 15:50:00,
2013-03-24 11:55:00,41.3,25.5,29.91,NE,49,2.0,4.0,53,0.00,,,0.00,VWS V14.01,2013-03-24 15:55:00,
2013-03-24 12:00:00,41.3,25.5,29.91,East,82,5.0,5.0,53,0.00,,,0.00,VWS V14.01,2013-03-24 16:00:00,
2013-03-24 12:05:00,41.3,25.5,29.91,ENE,74,0.0,3.0,53,0.00,,,0.00,VWS V14.01,2013-03-24 16:05:00,
2013-03-24 12:10:00,41.4,26.0,29.90,ENE,61,5.0,5.0,54,0.00,,,0.00,VWS V14.01,2013-03-24 16:10:00,
2013-03-24 12:15:00,41.5,25.7,29.90,ESE,116,2.0,6.0,53,0.00,,,0.00,VWS V14.01,2013-03-24 16:15:00,
2013-03-24 12:20:00,41.4,25.6,29.89,ENE,65,2.0,7.0,53,0.00,,,0.00,VWS V14.01,2013-03-24 16:20:00,
2013-03-24 12:25:00,41.5,25.7,29.89,ENE,73,0.0,4.0,53,0.00,,,0.00,VWS V14.01,2013-03-24 16:25:00,
2013-03-24 12:30:00,41.5,25.2,29.88,NNE,32,5.0,5.0,52,0.00,,,0.00,VWS V14.01,2013-03-24 16:30:00,
2013-03-24 12:35:00,41.3,25.0,29.88,NNE,25,1.0,3.0,52,0.00,,,0.00,VWS V14.01,2013-03-24 16:35:00,
2013-03-24 12:40:00,41.3,25.5,29.87,NE,52,0.0,1.0,53,0.00,,,0.00,VWS V14.01,2013-03-24 16:40:00,
2013-03-24 12:45:00,41.4,25.1,29.87,East,101,2.0,5.0,52,0.00,,,0.00,VWS V14.01,2013-03-24 16:45:00,
2013-03-24 12:50:00,41.3,25.0,29.86,ENE,63,2.0,2.0,52,0.00,,,0.00,VWS V14.01,2013-03-24 16:50:00,
2013-03-24 12:55:00,41.4,25.1,29.86,SE,134,1.0,2.0,52,0.00,,,0.00,VWS V14.01,2013-03-24 16:55:00,
2013-03-24 13:00:00,41.5,25.2,29.86,ENE,64,5.0,6.0,52,0.00,,,0.00,VWS V14.01,2013-03-24 17:00:00,
2013-03-24 13:05:00,41.5,25.2,29.85,NNE,33,4.0,5.0,52,0.00,,,0.00,VWS V14.01,2013-03-24 17:05:00,
2013-03-24 13:10:00,41.5,25.2,29.85,ENE,69,0.0,0.0,52,0.00,,,0.00,VWS V14.01,2013-03-24 17:10:00,
2013-03-24 13:15:00,41.6,25.8,29.84,ENE,72,0.0,2.0,53,0.00,,,0.00,VWS V14.01,2013-03-24 17:15:00,
2013-03-24 13:21:00,41.8,26.4,29.84,ENE,71,3.0,4.0,54,0.00,,,0.00,VWS V14.01,2013-03-24 17:21:00,
2013-03-24 13:26:00,41.7,25.9,29.83,ENE,78,0.0,1.0,53,0.00,,,0.00,VWS V14.01,2013-03-24 17:26:00,
2013-03-24 13:31:00,41.6,25.8,29.83,ESE,105,0.0,6.0,53,0.00,,,0.00,VWS V14.01,2013-03-24 17:31:00,
2013-03-24 13:36:00,41.6,25.8,29.83,East,92,0.0,2.0,53,0.00,,,0.00,VWS V14.01,2013-03-24 17:36:00,
2013-03-24 13:41:00,41.7,25.9,29.83,East,79,2.0,3.0,53,0.00,,,0.00,VWS V14.01,2013-03-24 17:41:00,
2013-03-24 13:46:00,41.7,25.4,29.82,ENE,74,2.0,4.0,52,0.00,,,0.00,VWS V14.01,2013-03-24 17:46:00,
2013-03-24 13:51:00,41.8,25.0,29.81,ENE,76,1.0,1.0,51,0.00,,,0.00,VWS V14.01,2013-03-24 17:51:00,
2013-03-24 13:56:00,41.8,25.5,29.81,NNE,15,4.0,5.0,52,0.00,,,0.00,VWS V14.01,2013-03-24 17:56:00,
2013-03-24 14:01:00,42.0,25.7,29.81,SSE,168,0.0,2.0,52,0.00,,,0.00,VWS V14.01,2013-03-24 18:01:00,
2013-03-24 14:06:00,42.4,25.6,29.80,NE,44,6.0,6.0,51,0.00,,,0.00,VWS V14.01,2013-03-24 18:06:00,
2013-03-24 14:11:00,42.3,25.5,29.80,ENE,73,2.0,4.0,51,0.00,,,0.00,VWS V14.01,2013-03-24 18:11:00,
2013-03-24 14:16:00,42.4,26.0,29.79,ESE,117,0.0,1.0,52,0.00,,,0.00,VWS V14.01,2013-03-24 18:16:00,
2013-03-24 14:21:00,42.6,25.8,29.79,ENE,69,0.0,2.0,51,0.00,,,0.00,VWS V14.01,2013-03-24 18:21:00,
2013-03-24 14:26:00,42.8,26.9,29.79,East,80,1.0,2.0,53,0.00,,,0.00,VWS V14.01,2013-03-24 18:26:00,
2013-03-24 14:31:00,42.9,26.0,29.79,ENE,76,0.0,0.0,51,0.00,,,0.00,VWS V14.01,2013-03-24 18:31:00,
2013-03-24 14:36:00,42.9,26.0,29.79,NNE,31,0.0,1.0,51,0.00,,,0.00,VWS V14.01,2013-03-24 18:36:00,
2013-03-24 14:41:00,43.0,26.1,29.79,SSE,165,1.0,5.0,51,0.00,,,0.00,VWS V14.01,2013-03-24 18:41:00,
2013-03-24 14:46:00,43.1,26.2,29.78,ESE,115,1.0,1.0,51,0.00,,,0.00,VWS V14.01,2013-03-24 18:46:00,
2013-03-24 14:51:00,43.1,25.7,29.77,NE,43,5.0,7.0,50,0.00,,,0.00,VWS V14.01,2013-03-24 18:51:00,
2013-03-24 14:56:00,43.2,26.3,29.77,SE,131,4.0,4.0,51,0.00,,,0.00,VWS V14.01,2013-03-24 18:56:00,
2013-03-24 15:01:00,43.3,25.4,29.76,NNE,26,2.0,5.0,49,0.00,,,0.00,VWS V14.01,2013-03-24 19:01:00,
2013-03-24 15:06:00,43.1,25.3,29.76,NE,40,2.0,5.0,49,0.00,,,0.00,VWS V14.01,2013-03-24 19:06:00,
2013-03-24 15:11:00,42.9,26.0,29.75,East,82,1.0,7.0,51,0.00,,,0.00,VWS V14.01,2013-03-24 19:11:00,
2013-03-24 15:16:00,42.9,26.0,29.75,SSE,150,4.0,4.0,51,0.00,,,0.00,VWS V14.01,2013-03-24 19:16:00,
2013-03-24 15:21:00,42.8,25.9,29.75,South,174,0.0,1.0,51,0.00,,,0.00,VWS V14.01,2013-03-24 19:21:00,
2013-03-24 15:26:00,42.8,25.9,29.75,South,169,0.0,2.0,51,0.00,,,0.00,VWS V14.01,2013-03-24 19:26:00,
2013-03-24 15:31:00,42.8,25.9,29.74,NE,49,0.0,0.0,51,0.00,,,0.00,VWS V14.01,2013-03-24 19:31:00,
2013-03-24 15:36:00,42.9,26.5,29.74,ENE,71,1.0,1.0,52,0.00,,,0.00,VWS V14.01,2013-03-24 19:36:00,
2013-03-24 15:41:00,42.9,26.0,29.74,SE,132,0.0,1.0,51,0.00,,,0.00,VWS V14.01,2013-03-24 19:41:00,
2013-03-24 15:46:00,42.8,25.9,29.74,ESE,121,0.0,1.0,51,0.00,,,0.00,VWS V14.01,2013-03-24 19:46:00,
2013-03-24 15:51:00,42.6,26.2,29.74,NE,56,0.0,1.0,52,0.00,,,0.00,VWS V14.01,2013-03-24 19:51:00,
2013-03-24 15:56:00,42.5,26.1,29.74,NE,44,0.0,0.0,52,0.00,,,0.00,VWS V14.01,2013-03-24 19:56:00,
2013-03-24 16:01:00,42.4,25.6,29.74,South,189,0.0,1.0,51,0.00,,,0.00,VWS V14.01,2013-03-24 20:01:00,
2013-03-24 16:06:00,42.3,25.9,29.73,NE,39,0.0,0.0,52,0.00,,,0.00,VWS V14.01,2013-03-24 20:06:00,
2013-03-24 16:11:00,42.3,26.4,29.73,SE,146,1.0,2.0,53,0.00,,,0.00,VWS V14.01,2013-03-24 20:11:00,
2013-03-24 16:16:00,42.2,26.3,29.73,SE,146,0.0,1.0,53,0.00,,,0.00,VWS V14.01,2013-03-24 20:16:00,
2013-03-24 16:21:00,42.3,26.4,29.73,ENE,59,0.0,2.0,53,0.00,,,0.00,VWS V14.01,2013-03-24 20:21:00,
2013-03-24 16:26:00,42.2,25.9,29.73,ENE,59,0.0,0.0,52,0.00,,,0.00,VWS V14.01,2013-03-24 20:26:00,
2013-03-24 16:31:00,42.3,26.4,29.73,East,100,0.0,1.0,53,0.00,,,0.00,VWS V14.01,2013-03-24 20:31:00,
2013-03-24 16:36:00,42.2,26.3,29.72,ENE,62,0.0,0.0,53,0.00,,,0.00,VWS V14.01,2013-03-24 20:36:00,
2013-03-24 16:41:00,42.3,26.4,29.72,ENE,62,1.0,2.0,53,0.00,,,0.00,VWS V14.01,2013-03-24 20:41:00,
2013-03-24 16:46:00,42.3,26.4,29.72,ENE,62,0.0,1.0,53,0.00,,,0.00,VWS V14.01,2013-03-24 20:46:00,
2013-03-24 16:51:00,42.3,26.4,29.72,ENE,62,0.0,0.0,53,0.00,,,0.00,VWS V14.01,2013-03-24 20:51:00,
2013-03-24 16:56:00,42.3,26.4,29.72,ENE,62,0.0,0.0,53,0.00,,,0.00,VWS V14.01,2013-03-24 20:56:00,
2013-03-24 17:01:00,42.4,26.0,29.72,ENE,62,0.0,0.0,52,0.00,,,0.00,VWS V14.01,2013-03-24 21:01:00,
2013-03-24 17:06:00,42.3,25.9,29.73,ENE,62,1.0,2.0,52,0.00,,,0.00,VWS V14.01,2013-03-24 21:06:00,
2013-03-24 17:11:00,42.4,26.0,29.72,ENE,62,0.0,1.0,52,0.00,,,0.00,VWS V14.01,2013-03-24 21:11:00,
2013-03-24 17:16:00,42.4,26.0,29.72,ENE,62,0.0,0.0,52,0.00,,,0.00,VWS V14.01,2013-03-24 21:16:00,
2013-03-24 17:21:00,42.4,25.6,29.72,NE,48,0.0,0.0,51,0.00,,,0.00,VWS V14.01,2013-03-24 21:21:00,
2013-03-24 17:26:00,42.3,25.9,29.71,NE,48,0.0,0.0,52,0.00,,,0.00,VWS V14.01,2013-03-24 21:26:00,
2013-03-24 17:30:00,42.3,25.5,29.72,NE,40,2.0,3.0,51,0.00,,,0.00,VWS V14.01,2013-03-24 21:30:00,
2013-03-24 17:36:00,42.3,25.9,29.72,NE,40,0.0,0.0,52,0.00,,,0.00,VWS V14.01,2013-03-24 21:36:00,
2013-03-24 17:41:00,42.3,25.9,29.73,NE,40,0.0,0.0,52,0.00,,,0.00,VWS V14.01,2013-03-24 21:41:00,
2013-03-24 17:46:00,42.2,25.9,29.73,NE,40,0.0,0.0,52,0.00,,,0.00,VWS V14.01,2013-03-24 21:46:00,
2013-03-24 17:51:00,42.1,25.3,29.73,NE,40,0.0,0.0,51,0.00,,,0.00,VWS V14.01,2013-03-24 21:51:00,
2013-03-24 17:56:00,42.0,25.7,29.74,NE,40,0.0,0.0,52,0.00,,,0.00,VWS V14.01,2013-03-24 21:56:00,
2013-03-24 18:01:00,42.0,25.7,29.74,NE,40,0.0,0.0,52,0.00,,,0.00,VWS V14.01,2013-03-24 22:01:00,
2013-03-24 18:05:00,41.9,25.6,29.74,NE,40,0.0,0.0,52,0.00,,,0.00,VWS V14.01,2013-03-24 22:05:00,
2013-03-24 18:11:00,41.9,26.0,29.74,NE,40,0.0,0.0,53,0.00,,,0.00,VWS V14.01,2013-03-24 22:11:00,
2013-03-24 18:16:00,41.9,25.6,29.74,NE,40,0.0,0.0,52,0.00,,,0.00,VWS V14.01,2013-03-24 22:16:00,
2013-03-24 18:20:00,41.9,26.5,29.74,NE,40,0.0,0.0,54,0.00,,,0.00,VWS V14.01,2013-03-24 22:20:00,
2013-03-24 18:25:00,41.9,26.0,29.73,NE,40,0.0,0.0,53,0.00,,,0.00,VWS V14.01,2013-03-24 22:25:00,
2013-03-24 18:30:00,41.9,26.5,29.73,NE,40,0.0,0.0,54,0.00,,,0.00,VWS V14.01,2013-03-24 22:30:00,
2013-03-24 18:35:00,41.9,26.0,29.73,NE,40,0.0,1.0,53,0.00,,,0.00,VWS V14.01,2013-03-24 22:35:00,
2013-03-24 18:40:00,41.8,26.4,29.74,NE,40,0.0,0.0,54,0.00,,,0.00,VWS V14.01,2013-03-24 22:40:00,
2013-03-24 18:45:00,41.8,26.8,29.73,SE,133,2.0,6.0,55,0.00,,,0.00,VWS V14.01,2013-03-24 22:45:00,
2013-03-24 18:50:00,41.8,27.7,29.74,ENE,78,0.0,5.0,57,0.00,,,0.00,VWS V14.01,2013-03-24 22:50:00,
2013-03-24 18:56:00,41.6,28.8,29.74,SW,234,0.0,4.0,60,0.00,,,0.00,VWS V14.01,2013-03-24 22:56:00,
2013-03-24 19:01:00,41.3,29.7,29.74,SSE,157,0.0,1.0,63,0.00,,,0.00,VWS V14.01,2013-03-24 23:01:00,
2013-03-24 19:06:00,41.0,29.8,29.74,SSE,158,0.0,0.0,64,0.00,,,0.00,VWS V14.01,2013-03-24 23:06:00,
2013-03-24 19:11:00,40.8,30.3,29.74,SSE,157,0.0,1.0,66,0.00,,,0.00,VWS V14.01,2013-03-24 23:11:00,
2013-03-24 19:16:00,40.6,30.9,29.74,SSE,157,0.0,1.0,68,0.00,,,0.00,VWS V14.01,2013-03-24 23:16:00,
2013-03-24 19:21:00,40.4,31.0,29.74,SSW,207,1.0,2.0,69,0.00,,,0.00,VWS V14.01,2013-03-24 23:21:00,
2013-03-24 19:26:00,40.2,30.9,29.74,SE,146,1.0,1.0,69,0.00,,,0.00,VWS V14.01,2013-03-24 23:26:00,
2013-03-24 19:31:00,40.0,31.0,29.74,SE,134,0.0,4.0,70,0.00,,,0.00,VWS V14.01,2013-03-24 23:31:00,
2013-03-24 19:36:00,39.8,31.2,29.74,SE,134,1.0,2.0,71,0.00,,,0.00,VWS V14.01,2013-03-24 23:36:00,
2013-03-24 19:41:00,39.7,31.4,29.74,SSE,161,3.0,5.0,72,0.00,,,0.00,VWS V14.01,2013-03-24 23:41:00,
2013-03-24 19:45:00,39.6,31.7,29.74,SE,144,0.0,3.0,73,0.00,,,0.00,VWS V14.01,2013-03-24 23:45:00,
2013-03-24 19:50:00,39.4,31.5,29.74,ESE,104,0.0,2.0,73,0.00,,,0.00,VWS V14.01,2013-03-24 23:50:00,
2013-03-24 19:55:00,39.2,31.6,29.74,SE,142,0.0,0.0,74,0.00,,,0.00,VWS V14.01,2013-03-24 23:55:00,
2013-03-24 20:00:00,39.1,31.5,29.74,SE,142,1.0,2.0,74,0.00,,,0.00,VWS V14.01,2013-03-25 00:00:00,
2013-03-24 20:06:00,38.9,32.0,29.74,SSE,150,4.0,9.0,76,0.00,,,0.00,VWS V14.01,2013-03-25 00:06:00,
2013-03-24 20:10:00,38.6,32.7,29.74,South,189,6.0,6.0,79,0.00,,,0.00,VWS V14.01,2013-03-25 00:10:00,
2013-03-24 20:16:00,38.0,32.7,29.74,SE,138,1.0,6.0,81,0.00,,,0.00,VWS V14.01,2013-03-25 00:16:00,
2013-03-24 20:20:00,37.6,32.9,29.74,SE,144,2.0,2.0,83,0.00,,,0.00,VWS V14.01,2013-03-25 00:20:00,
2013-03-24 20:25:00,37.3,32.9,29.74,South,180,2.0,2.0,84,0.00,,,0.00,VWS V14.01,2013-03-25 00:25:00,
2013-03-24 20:30:00,37.1,33.0,29.74,SSE,162,1.0,4.0,85,0.00,,,0.00,VWS V14.01,2013-03-25 00:30:00,
2013-03-24 20:35:00,36.9,33.1,29.74,SW,223,5.0,6.0,86,0.00,,,0.00,VWS V14.01,2013-03-25 00:35:00,
2013-03-24 20:40:00,36.7,33.2,29.74,South,173,0.0,4.0,87,0.00,,,0.00,VWS V14.01,2013-03-25 00:40:00,
2013-03-24 20:45:00,36.6,33.1,29.73,SW,218,3.0,3.0,87,0.00,,,0.00,VWS V14.01,2013-03-25 00:45:00,
2013-03-24 20:50:00,36.6,33.4,29.73,SSW,213,0.0,0.0,88,0.00,,,0.00,VWS V14.01,2013-03-25 00:50:00,
2013-03-24 20:56:00,36.6,33.4,29.73,SSE,155,1.0,4.0,88,0.00,,,0.00,VWS V14.01,2013-03-25 00:56:00,
2013-03-24 21:00:00,36.5,33.3,29.73,SSW,213,0.0,2.0,88,0.00,,,0.00,VWS V14.01,2013-03-25 01:00:00,
2013-03-24 21:05:00,36.5,33.3,29.73,SW,217,0.0,0.0,88,0.00,,,0.00,VWS V14.01,2013-03-25 01:05:00,
2013-03-24 21:11:00,36.5,33.3,29.73,SW,217,0.0,0.0,88,0.00,,,0.00,VWS V14.01,2013-03-25 01:11:00,
2013-03-24 21:15:00,36.5,33.3,29.73,South,181,0.0,1.0,88,0.00,,,0.00,VWS V14.01,2013-03-25 01:15:00,
2013-03-24 21:21:00,36.6,33.7,29.73,South,181,0.0,0.0,89,0.00,,,0.00,VWS V14.01,2013-03-25 01:21:00,
2013-03-24 21:25:00,36.6,33.7,29.72,ESE,109,1.0,2.0,89,0.00,,,0.00,VWS V14.01,2013-03-25 01:25:00,
2013-03-24 21:30:00,36.7,33.8,29.71,ESE,109,0.0,0.0,89,0.00,,,0.00,VWS V14.01,2013-03-25 01:30:00,
2013-03-24 21:35:00,36.7,33.8,29.71,ESE,109,0.0,3.0,89,0.00,,,0.00,VWS V14.01,2013-03-25 01:35:00,
2013-03-24 21:40:00,36.6,33.7,29.71,ESE,105,0.0,1.0,89,0.00,,,0.00,VWS V14.01,2013-03-25 01:40:00,
2013-03-24 21:45:00,36.6,33.7,29.70,ESE,105,1.0,2.0,89,0.00,,,0.00,VWS V14.01,2013-03-25 01:45:00,
2013-03-24 21:50:00,36.5,33.6,29.68,ENE,57,2.0,6.0,89,0.00,,,0.00,VWS V14.01,2013-03-25 01:50:00,
2013-03-24 21:55:00,36.5,33.6,29.68,ESE,103,0.0,0.0,89,0.00,,,0.00,VWS V14.01,2013-03-25 01:55:00,
2013-03-24 22:00:00,36.4,33.5,29.69,ESE,102,0.0,0.0,89,0.00,,,0.00,VWS V14.01,2013-03-25 02:00:00,
2013-03-24 22:05:00,36.4,33.5,29.70,ESE,102,0.0,0.0,89,0.00,,,0.00,VWS V14.01,2013-03-25 02:05:00,
2013-03-24 22:10:00,36.4,33.5,29.70,ESE,102,0.0,0.0,89,0.00,,,0.00,VWS V14.01,2013-03-25 02:10:00,
2013-03-24 22:15:00,36.3,33.4,29.69,ESE,102,0.0,1.0,89,0.00,,,0.00,VWS V14.01,2013-03-25 02:15:00,
2013-03-24 22:20:00,36.3,33.7,29.70,ESE,102,0.0,0.0,90,0.00,,,0.00,VWS V14.01,2013-03-25 02:20:00,
2013-03-24 22:25:00,36.2,33.3,29.71,ESE,102,0.0,0.0,89,0.00,,,0.00,VWS V14.01,2013-03-25 02:25:00,
2013-03-24 22:30:00,36.2,33.6,29.70,ESE,102,0.0,0.0,90,0.00,,,0.00,VWS V14.01,2013-03-25 02:30:00,
2013-03-24 22:35:00,36.2,33.6,29.71,ESE,102,0.0,0.0,90,0.00,,,0.00,VWS V14.01,2013-03-25 02:35:00,
2013-03-24 22:40:00,36.2,33.6,29.70,ESE,102,0.0,0.0,90,0.00,,,0.00,VWS V14.01,2013-03-25 02:40:00,
2013-03-24 22:45:00,36.3,33.7,29.70,ESE,102,0.0,0.0,90,0.00,,,0.00,VWS V14.01,2013-03-25 02:45:00,
2013-03-24 22:50:00,36.3,33.7,29.70,ESE,102,0.0,0.0,90,0.00,,,0.00,VWS V14.01,2013-03-25 02:50:00,
2013-03-24 22:55:00,36.3,33.7,29.70,ESE,102,0.0,0.0,90,0.00,,,0.00,VWS V14.01,2013-03-25 02:55:00,
2013-03-24 23:00:00,36.4,33.8,29.69,ESE,102,0.0,0.0,90,0.00,,,0.00,VWS V14.01,2013-03-25 03:00:00,
2013-03-24 23:05:00,36.4,33.8,29.70,ESE,102,0.0,0.0,90,0.00,,,0.00,VWS V14.01,2013-03-25 03:05:00,
2013-03-24 23:10:00,36.4,33.5,29.70,ESE,102,0.0,0.0,89,0.00,,,0.00,VWS V14.01,2013-03-25 03:10:00,
2013-03-24 23:15:00,36.4,33.5,29.70,ESE,102,1.0,1.0,89,0.00,,,0.00,VWS V14.01,2013-03-25 03:15:00,
2013-03-24 23:21:00,36.4,33.5,29.70,ESE,102,0.0,1.0,89,0.00,,,0.00,VWS V14.01,2013-03-25 03:21:00,
2013-03-24 23:26:00,36.4,33.5,29.70,ESE,102,0.0,0.0,89,0.00,,,0.00,VWS V14.01,2013-03-25 03:26:00,
2013-03-24 23:31:00,36.5,33.6,29.70,ESE,102,0.0,0.0,89,0.00,,,0.00,VWS V14.01,2013-03-25 03:31:00,
2013-03-24 23:36:00,36.5,33.6,29.70,ESE,102,0.0,1.0,89,0.00,,,0.00,VWS V14.01,2013-03-25 03:36:00,
2013-03-24 23:41:00,36.5,33.6,29.70,ESE,102,1.0,2.0,89,0.00,,,0.00,VWS V14.01,2013-03-25 03:41:00,
2013-03-24 23:46:00,36.5,33.6,29.69,ESE,102,0.0,0.0,89,0.00,,,0.00,VWS V14.01,2013-03-25 03:46:00,
2013-03-24 23:51:00,36.5,33.6,29.68,ESE,102,0.0,0.0,89,0.00,,,0.00,VWS V14.01,2013-03-25 03:51:00,
2013-03-24 23:56:00,36.5,33.3,29.68,ESE,103,1.0,2.0,88,0.00,,,0.00,VWS V14.01,2013-03-25 03:56:00,